ITY640 LIRF-KSFO

Flight info

Callsign ITY640
Flight time N/A
Altitude 34000
Route NEMBO GOVGO ITCAP AOSTA ORSUD MOLUS IBODI GOTED TRO CLM KOPOR VESAN RATUK SOVAT L613 LEHOC INPIP ERAKA 623000N/0200000W 643000N/0300000W 653000N/0400000W 660000N/0500000W EPMAN 653000N/0700000W 640000N/0800000W 613000N/0900000W 570000N/1000000W POLLE WALSH BOI FMG SWR T331 TIPRE RISTI1
Aircraft A339/H-SADE1E2E3GHIJ3J5M1P2RWXY/LB2D1

Departure

Time N/A
Airport Rome–Fiumicino Leonardo da Vinci International Airport (LIRF)

Arrival

Time 2026-05-07 22:28
Airport San Francisco International Airport (KSFO)
Time Latitude Longitude Altitude Speed Heading
2026-05-07 14:07 60.26575 -21.27069 36129 ft 458 kts 293°
2026-05-07 14:07 60.28956 -21.38969 36129 ft 458 kts 294°
2026-05-07 14:08 60.31327 -21.50815 36129 ft 458 kts 294°
2026-05-07 14:08 60.33702 -21.62679 36129 ft 458 kts 294°
2026-05-07 14:09 60.36040 -21.74645 36129 ft 459 kts 292°
2026-05-07 14:09 60.38408 -21.86610 36129 ft 458 kts 293°
2026-05-07 14:10 60.40781 -21.98495 36129 ft 458 kts 293°
2026-05-07 14:10 60.43160 -22.10385 36133 ft 458 kts 293°
2026-05-07 14:11 60.45556 -22.22355 36193 ft 458 kts 294°
2026-05-07 14:11 60.47947 -22.34298 36241 ft 458 kts 294°
2026-05-07 14:12 60.50338 -22.46244 36236 ft 458 kts 294°
2026-05-07 14:12 60.52725 -22.58172 36238 ft 458 kts 294°
2026-05-07 14:13 60.55097 -22.70137 36237 ft 458 kts 292°
2026-05-07 14:13 60.57455 -22.82193 36237 ft 458 kts 293°
2026-05-07 14:14 60.59835 -22.94129 36237 ft 457 kts 293°
2026-05-07 14:14 60.62216 -23.06033 36237 ft 457 kts 294°
2026-05-07 14:15 60.64610 -23.17992 36237 ft 457 kts 294°
2026-05-07 14:15 60.67003 -23.29944 36237 ft 457 kts 294°
2026-05-07 14:16 60.69405 -23.41939 36237 ft 457 kts 294°
2026-05-07 14:16 60.71801 -23.53911 36237 ft 457 kts 294°
2026-05-07 14:17 60.74191 -23.65852 36237 ft 457 kts 293°
2026-05-07 14:17 60.76540 -23.77943 36237 ft 457 kts 293°
2026-05-07 14:18 60.78918 -23.89890 36237 ft 457 kts 294°
2026-05-07 14:18 60.81322 -24.01921 36237 ft 457 kts 294°
2026-05-07 14:19 60.83730 -24.13948 36237 ft 457 kts 294°
2026-05-07 14:19 60.86121 -24.25896 36237 ft 457 kts 294°
2026-05-07 14:20 60.88536 -24.37959 36237 ft 457 kts 294°
2026-05-07 14:20 60.90950 -24.50021 36237 ft 456 kts 294°
2026-05-07 14:21 60.93356 -24.62038 36237 ft 456 kts 294°
2026-05-07 14:21 60.95717 -24.74102 36237 ft 457 kts 293°
2026-05-07 14:22 60.98100 -24.86153 36237 ft 457 kts 294°
2026-05-07 14:22 61.00506 -24.98201 36237 ft 456 kts 294°
2026-05-07 14:23 61.02918 -25.10255 36237 ft 453 kts 294°
2026-05-07 14:23 61.05317 -25.22241 36236 ft 450 kts 295°
2026-05-07 14:24 61.07702 -25.34149 36237 ft 451 kts 295°
2026-05-07 14:24 61.10093 -25.46091 36237 ft 451 kts 295°
2026-05-07 14:25 61.12502 -25.58037 36238 ft 451 kts 295°
2026-05-07 14:25 61.14875 -25.69965 36238 ft 451 kts 293°
2026-05-07 14:26 61.17226 -25.81991 36237 ft 451 kts 294°
2026-05-07 14:26 61.19622 -25.94009 36237 ft 451 kts 294°
2026-05-07 14:27 61.22010 -26.05938 36237 ft 451 kts 294°
2026-05-07 14:27 61.24413 -26.17942 36237 ft 451 kts 295°
2026-05-07 14:28 61.26820 -26.29958 36237 ft 451 kts 295°
2026-05-07 14:28 61.29222 -26.41948 36237 ft 451 kts 295°
2026-05-07 14:29 61.31618 -26.53923 36237 ft 451 kts 295°
2026-05-07 14:29 61.34031 -26.65963 36237 ft 451 kts 294°
2026-05-07 14:30 61.36367 -26.77976 36237 ft 451 kts 294°
2026-05-07 14:30 61.38779 -26.90093 36237 ft 451 kts 294°
2026-05-07 14:31 61.41179 -27.02089 36237 ft 450 kts 295°
2026-05-07 14:31 61.43585 -27.14108 36237 ft 449 kts 295°
2026-05-07 14:32 61.45981 -27.26074 36237 ft 449 kts 295°
2026-05-07 14:32 61.48396 -27.38126 36237 ft 449 kts 295°
2026-05-07 14:33 61.50800 -27.50129 36237 ft 449 kts 295°
2026-05-07 14:33 61.53206 -27.62145 36237 ft 449 kts 295°
2026-05-07 14:34 61.55580 -27.74264 36237 ft 449 kts 294°
2026-05-07 14:34 61.57960 -27.86294 36237 ft 449 kts 294°
2026-05-07 14:35 61.60371 -27.98363 36237 ft 449 kts 295°
2026-05-07 14:35 61.62780 -28.10404 36237 ft 449 kts 295°
2026-05-07 14:36 61.65203 -28.22504 36237 ft 449 kts 295°
2026-05-07 14:36 61.67629 -28.34614 36237 ft 449 kts 295°
2026-05-07 14:37 61.70048 -28.46695 36237 ft 449 kts 295°
2026-05-07 14:37 61.73680 -28.64830 36252 ft 449 kts 295°
2026-05-07 14:38 61.76043 -28.76961 36282 ft 449 kts 294°
2026-05-07 14:38 61.78458 -28.89113 36291 ft 449 kts 295°
2026-05-07 14:39 61.80882 -29.01234 36291 ft 449 kts 295°
2026-05-07 14:39 61.83305 -29.13331 36290 ft 449 kts 295°
2026-05-07 14:40 61.85737 -29.25479 36291 ft 449 kts 295°
2026-05-07 14:40 61.88176 -29.37657 36291 ft 449 kts 296°
2026-05-07 14:41 61.90611 -29.49809 36291 ft 449 kts 296°
2026-05-07 14:41 61.93044 -29.61953 36291 ft 449 kts 296°
2026-05-07 14:42 61.95438 -29.74167 36291 ft 450 kts 294°
2026-05-07 14:42 61.97865 -29.86426 36291 ft 449 kts 295°
2026-05-07 14:43 62.00286 -29.98542 36291 ft 449 kts 295°
2026-05-07 14:43 62.02732 -30.10757 36290 ft 449 kts 295°
2026-05-07 14:44 62.05183 -30.22995 36290 ft 449 kts 295°
2026-05-07 14:44 62.07626 -30.35185 36290 ft 449 kts 296°
2026-05-07 14:45 62.10066 -30.47367 36291 ft 449 kts 296°
2026-05-07 14:45 62.12530 -30.59572 36292 ft 449 kts 296°
2026-05-07 14:46 62.14956 -30.71835 36292 ft 449 kts 294°
2026-05-07 14:46 62.17372 -30.84107 36291 ft 449 kts 295°
2026-05-07 14:47 62.19822 -30.96374 36291 ft 449 kts 295°
2026-05-07 14:47 62.22285 -31.08676 36291 ft 447 kts 296°
2026-05-07 14:48 62.24707 -31.20858 36291 ft 445 kts 296°
2026-05-07 14:48 62.27126 -31.32982 36291 ft 445 kts 296°
2026-05-07 14:49 62.29559 -31.45141 36291 ft 445 kts 296°
2026-05-07 14:49 62.32011 -31.57371 36291 ft 445 kts 296°
2026-05-07 14:50 62.34432 -31.69527 36291 ft 445 kts 295°
2026-05-07 14:50 62.36829 -31.81771 36291 ft 445 kts 296°
2026-05-07 14:51 62.39275 -31.94024 36291 ft 445 kts 296°
2026-05-07 14:51 62.41714 -32.06209 36291 ft 445 kts 296°
2026-05-07 14:52 62.44161 -32.18417 36291 ft 445 kts 296°
2026-05-07 14:52 62.46623 -32.30704 36291 ft 445 kts 296°
2026-05-07 14:53 62.49064 -32.42878 36291 ft 445 kts 296°
2026-05-07 14:53 62.51517 -32.55124 36291 ft 445 kts 296°
2026-05-07 14:54 62.53972 -32.67388 36291 ft 445 kts 295°
2026-05-07 14:54 62.56380 -32.79722 36291 ft 446 kts 296°
2026-05-07 14:55 62.58839 -32.92045 36291 ft 445 kts 296°
2026-05-07 14:55 62.61308 -33.04377 36291 ft 447 kts 296°
2026-05-07 14:56 62.63783 -33.16732 36291 ft 447 kts 297°
2026-05-07 14:56 62.66260 -33.29089 36291 ft 447 kts 297°
2026-05-07 14:57 62.68729 -33.41405 36291 ft 447 kts 297°
2026-05-07 14:57 62.71214 -33.53806 36291 ft 447 kts 297°
2026-05-07 14:58 62.73689 -33.66154 36291 ft 447 kts 296°
2026-05-07 14:58 62.76133 -33.78680 36291 ft 447 kts 296°
2026-05-07 14:59 62.78605 -33.91071 36291 ft 447 kts 296°
2026-05-07 14:59 62.81077 -34.03424 36291 ft 447 kts 297°
2026-05-07 15:00 62.83579 -34.15904 36291 ft 447 kts 297°
2026-05-07 15:00 62.86064 -34.28303 36291 ft 447 kts 297°
2026-05-07 15:01 62.88555 -34.40729 36281 ft 447 kts 297°
2026-05-07 15:01 62.91039 -34.53114 36267 ft 446 kts 297°
2026-05-07 15:02 62.93538 -34.65576 36263 ft 446 kts 296°
2026-05-07 15:02 62.95990 -34.78133 36263 ft 447 kts 296°
2026-05-07 15:03 62.98472 -34.90582 36263 ft 447 kts 297°
2026-05-07 15:03 63.00982 -35.03110 36263 ft 448 kts 298°
2026-05-07 15:04 63.03490 -35.15628 36263 ft 448 kts 298°
2026-05-07 15:04 63.05996 -35.28123 36263 ft 448 kts 298°
2026-05-07 15:05 63.08507 -35.40645 36263 ft 448 kts 298°
2026-05-07 15:05 63.11029 -35.53193 36266 ft 448 kts 298°
2026-05-07 15:06 63.13556 -35.65714 36264 ft 448 kts 297°
2026-05-07 15:06 63.16019 -35.78311 36265 ft 448 kts 297°
2026-05-07 15:07 63.18536 -35.90936 36265 ft 448 kts 298°
2026-05-07 15:07 63.21046 -36.03465 36265 ft 448 kts 298°
2026-05-07 15:08 63.23575 -36.16082 36265 ft 448 kts 298°
2026-05-07 15:08 63.26094 -36.28643 36265 ft 448 kts 298°
2026-05-07 15:09 63.28633 -36.41294 36264 ft 447 kts 298°
2026-05-07 15:09 63.31153 -36.53869 36264 ft 449 kts 298°
2026-05-07 15:10 63.33693 -36.66537 36264 ft 448 kts 297°
2026-05-07 15:10 63.36178 -36.79271 36264 ft 449 kts 298°
2026-05-07 15:11 63.38702 -36.91917 36264 ft 448 kts 298°
2026-05-07 15:11 63.41239 -37.04581 36264 ft 448 kts 298°
2026-05-07 15:12 63.43771 -37.17205 36264 ft 446 kts 299°
2026-05-07 15:12 63.46294 -37.29791 36264 ft 446 kts 299°
2026-05-07 15:13 63.48829 -37.42430 36264 ft 446 kts 299°
2026-05-07 15:13 63.51364 -37.55069 36264 ft 446 kts 300°
2026-05-07 15:14 63.53903 -37.67741 36264 ft 446 kts 298°
2026-05-07 15:14 63.56376 -37.80416 36264 ft 446 kts 299°
2026-05-07 15:15 63.58914 -37.93127 36264 ft 446 kts 299°
2026-05-07 15:15 63.61444 -38.05747 36264 ft 446 kts 299°
2026-05-07 15:16 63.63982 -38.18407 36264 ft 445 kts 299°
2026-05-07 15:16 63.66530 -38.31110 36264 ft 445 kts 299°
2026-05-07 15:17 63.69065 -38.43739 36264 ft 445 kts 300°
2026-05-07 15:17 63.71617 -38.56459 36264 ft 445 kts 300°
2026-05-07 15:18 63.74141 -38.69098 36263 ft 446 kts 298°
2026-05-07 15:18 63.76643 -38.81892 36263 ft 446 kts 299°
2026-05-07 15:19 63.79189 -38.94633 36263 ft 445 kts 300°
2026-05-07 15:19 63.81721 -39.07264 36263 ft 441 kts 300°
2026-05-07 15:20 63.84251 -39.19874 36263 ft 440 kts 301°
2026-05-07 15:20 63.86787 -39.32513 36263 ft 440 kts 301°
2026-05-07 15:21 63.89303 -39.45069 36263 ft 440 kts 301°
2026-05-07 15:21 63.91828 -39.57653 36263 ft 440 kts 301°
2026-05-07 15:22 63.94354 -39.70345 36263 ft 441 kts 299°
2026-05-07 15:22 63.96839 -39.83017 36263 ft 440 kts 300°
2026-05-07 15:23 63.99371 -39.95685 36263 ft 440 kts 300°
2026-05-07 15:23 64.01907 -40.08328 36263 ft 440 kts 301°
2026-05-07 15:24 64.04451 -40.20999 36263 ft 440 kts 301°
2026-05-07 15:24 64.06980 -40.33603 36263 ft 442 kts 301°
2026-05-07 15:25 64.09532 -40.46323 36262 ft 441 kts 301°
2026-05-07 15:25 64.12110 -40.59098 36265 ft 441 kts 301°
2026-05-07 15:26 64.14638 -40.71829 36266 ft 442 kts 300°
2026-05-07 15:26 64.17152 -40.84584 36266 ft 440 kts 301°
2026-05-07 15:27 64.19682 -40.97235 36265 ft 434 kts 302°
2026-05-07 15:27 64.22177 -41.09674 36265 ft 429 kts 303°
2026-05-07 15:28 64.24683 -41.22163 36265 ft 431 kts 303°
2026-05-07 15:28 64.27174 -41.34581 36265 ft 430 kts 303°
2026-05-07 15:29 64.29674 -41.47037 36265 ft 430 kts 303°
2026-05-07 15:29 64.32178 -41.59512 36265 ft 429 kts 303°
2026-05-07 15:30 64.34643 -41.71971 36265 ft 431 kts 302°
2026-05-07 15:30 64.37117 -41.84522 36264 ft 430 kts 302°
2026-05-07 15:31 64.39633 -41.97108 36265 ft 430 kts 303°
2026-05-07 15:31 64.42127 -42.09544 36264 ft 430 kts 303°
2026-05-07 15:32 64.44637 -42.22052 36264 ft 429 kts 303°
2026-05-07 15:32 64.47143 -42.34540 36264 ft 429 kts 303°
2026-05-07 15:33 64.49666 -42.47110 36264 ft 429 kts 303°
2026-05-07 15:33 64.52182 -42.59643 36264 ft 429 kts 303°
2026-05-07 15:34 64.54647 -42.72117 36265 ft 430 kts 302°
2026-05-07 15:34 64.57144 -42.84778 36263 ft 429 kts 302°
2026-05-07 15:35 64.59648 -42.97288 36264 ft 429 kts 303°
2026-05-07 15:35 64.62144 -43.09747 36264 ft 419 kts 304°
2026-05-07 15:36 64.64581 -43.21903 36262 ft 409 kts 305°
2026-05-07 15:36 64.66985 -43.33862 36264 ft 409 kts 306°
2026-05-07 15:37 64.69395 -43.45864 36263 ft 410 kts 306°
2026-05-07 15:37 64.71809 -43.57893 36263 ft 409 kts 306°
2026-05-07 15:38 64.74182 -43.69828 36264 ft 411 kts 304°
2026-05-07 15:38 64.76563 -43.81981 36261 ft 410 kts 305°
2026-05-07 15:39 64.78975 -43.94046 36263 ft 410 kts 305°
2026-05-07 15:39 64.81386 -44.06083 36264 ft 411 kts 306°
2026-05-07 15:40 64.83836 -44.18285 36264 ft 412 kts 306°
2026-05-07 15:40 64.86267 -44.30404 36262 ft 411 kts 306°
2026-05-07 15:41 64.88709 -44.42572 36262 ft 412 kts 306°
2026-05-07 15:41 64.91134 -44.54652 36263 ft 411 kts 306°
2026-05-07 15:42 64.93572 -44.66814 36260 ft 411 kts 305°
2026-05-07 15:42 64.95954 -44.79038 36263 ft 412 kts 305°
2026-05-07 15:43 64.98392 -44.91261 36263 ft 410 kts 305°
2026-05-07 15:43 65.00796 -45.03283 36262 ft 400 kts 305°
2026-05-07 15:44 65.03125 -45.14895 36260 ft 390 kts 305°
2026-05-07 15:44 65.05462 -45.26530 36262 ft 392 kts 305°
2026-05-07 15:45 65.07793 -45.38152 36261 ft 392 kts 305°
2026-05-07 15:45 65.10117 -45.49732 36262 ft 391 kts 306°
2026-05-07 15:46 65.13635 -45.67193 36266 ft 392 kts 304°
2026-05-07 15:47 65.15926 -45.78941 36266 ft 393 kts 304°
2026-05-07 15:47 65.18253 -45.90615 36266 ft 391 kts 305°
2026-05-07 15:48 65.20584 -46.02253 36266 ft 391 kts 305°
2026-05-07 15:48 65.22928 -46.13940 36265 ft 391 kts 305°
2026-05-07 15:49 65.25278 -46.25652 36265 ft 391 kts 305°
2026-05-07 15:49 65.27630 -46.37366 36268 ft 398 kts 305°
2026-05-07 15:50 65.30038 -46.49367 36263 ft 402 kts 305°
2026-05-07 15:50 65.32450 -46.61391 36225 ft 402 kts 305°
2026-05-07 15:51 65.34829 -46.73499 36131 ft 403 kts 304°
2026-05-07 15:51 65.37210 -46.85549 36080 ft 401 kts 304°
2026-05-07 15:52 65.39205 -46.95528 36077 ft 400 kts 304°
2026-05-07 15:52 65.42022 -47.09580 36075 ft 400 kts 303°
2026-05-07 15:53 65.44430 -47.21587 36075 ft 400 kts 303°
2026-05-07 15:53 65.46835 -47.33575 36075 ft 399 kts 304°
2026-05-07 15:54 65.49238 -47.45558 36075 ft 399 kts 304°
2026-05-07 15:54 65.51657 -47.57616 36074 ft 399 kts 304°
2026-05-07 15:55 65.54063 -47.69703 36076 ft 403 kts 303°
2026-05-07 15:55 65.56441 -47.81859 36075 ft 402 kts 303°
2026-05-07 15:56 65.58867 -47.94005 36074 ft 401 kts 304°
2026-05-07 15:56 65.61289 -48.06087 36074 ft 401 kts 304°
2026-05-07 15:57 65.63722 -48.18225 36074 ft 401 kts 304°
2026-05-07 15:57 65.66137 -48.30267 36074 ft 401 kts 304°
2026-05-07 15:58 65.68574 -48.42423 36074 ft 400 kts 304°
2026-05-07 15:58 65.70997 -48.54508 36074 ft 400 kts 304°
2026-05-07 15:59 65.73432 -48.66662 36073 ft 401 kts 303°
2026-05-07 15:59 65.75822 -48.78931 36074 ft 401 kts 303°
2026-05-07 16:00 65.78251 -48.91110 36074 ft 400 kts 304°
2026-05-07 16:00 65.80688 -49.03286 36074 ft 401 kts 303°
2026-05-07 16:01 65.83123 -49.15429 36073 ft 403 kts 303°
2026-05-07 16:01 65.85594 -49.27760 36073 ft 404 kts 302°
2026-05-07 16:02 65.88057 -49.40053 36073 ft 403 kts 303°
2026-05-07 16:02 65.90514 -49.52319 36073 ft 403 kts 303°
2026-05-07 16:03 65.92982 -49.64645 36073 ft 403 kts 303°
2026-05-07 16:03 65.95395 -49.77010 36073 ft 404 kts 302°
2026-05-07 16:04 65.97860 -49.89352 36073 ft 403 kts 302°
2026-05-07 16:04 66.00006 -50.02082 36081 ft 417 kts 287°
2026-05-07 16:04 66.00234 -50.09299 36069 ft 428 kts 280°
2026-05-07 16:05 66.00302 -50.16627 36074 ft 428 kts 280°
2026-05-07 16:05 66.00381 -50.31172 36072 ft 429 kts 279°
2026-05-07 16:06 66.00401 -50.45815 36073 ft 429 kts 279°
2026-05-07 16:06 66.00410 -50.60402 36072 ft 429 kts 279°
2026-05-07 16:07 66.00374 -50.75049 36073 ft 431 kts 278°
2026-05-07 16:07 66.00348 -50.89714 36073 ft 429 kts 279°
2026-05-07 16:08 66.00347 -51.04319 36073 ft 425 kts 279°
2026-05-07 16:08 66.00352 -51.18716 36073 ft 421 kts 278°
2026-05-07 16:09 66.00359 -51.33070 36073 ft 423 kts 279°
2026-05-07 16:09 66.00364 -51.47487 36072 ft 422 kts 279°
2026-05-07 16:10 66.00369 -51.61838 36074 ft 424 kts 279°
2026-05-07 16:10 66.00326 -51.76339 36072 ft 426 kts 278°
2026-05-07 16:11 66.00307 -51.90863 36073 ft 424 kts 278°
2026-05-07 16:11 66.00307 -52.05260 36073 ft 424 kts 278°
2026-05-07 16:12 66.00312 -52.19721 36079 ft 424 kts 279°
2026-05-07 16:12 66.00318 -52.34157 36086 ft 424 kts 279°
2026-05-07 16:13 66.00324 -52.48656 36085 ft 424 kts 279°
2026-05-07 16:13 66.00330 -52.63043 36090 ft 423 kts 279°
2026-05-07 16:14 66.00280 -52.77535 36098 ft 425 kts 278°
2026-05-07 16:14 66.00266 -52.92056 36101 ft 424 kts 278°
2026-05-07 16:15 66.00267 -53.06468 36100 ft 424 kts 277°
2026-05-07 16:15 66.00272 -53.20821 36100 ft 423 kts 277°
2026-05-07 16:16 66.00278 -53.35269 36100 ft 423 kts 277°
2026-05-07 16:16 66.00283 -53.49663 36100 ft 423 kts 278°
2026-05-07 16:17 66.00288 -53.64108 36100 ft 423 kts 278°
2026-05-07 16:17 66.00236 -53.78602 36100 ft 425 kts 277°
2026-05-07 16:18 66.00224 -53.92985 36100 ft 423 kts 277°
2026-05-07 16:18 66.00227 -54.07423 36100 ft 423 kts 277°
2026-05-07 16:19 66.00231 -54.21825 36100 ft 423 kts 277°
2026-05-07 16:19 66.00236 -54.36286 36100 ft 423 kts 277°
2026-05-07 16:20 66.00243 -54.50696 36100 ft 423 kts 277°
2026-05-07 16:20 66.00248 -54.65139 36100 ft 423 kts 277°
2026-05-07 16:21 66.00193 -54.79559 36101 ft 424 kts 277°
2026-05-07 16:21 66.00184 -54.93987 36100 ft 423 kts 277°
2026-05-07 16:22 66.00185 -55.08378 36100 ft 422 kts 276°
2026-05-07 16:22 66.00191 -55.22716 36101 ft 420 kts 276°
2026-05-07 16:23 66.00196 -55.37009 36100 ft 420 kts 276°
2026-05-07 16:23 66.00201 -55.51360 36100 ft 420 kts 276°
2026-05-07 16:24 66.00208 -55.65659 36100 ft 420 kts 275°
2026-05-07 16:24 66.00151 -55.80031 36101 ft 421 kts 275°
2026-05-07 16:25 66.00143 -55.94367 36100 ft 421 kts 275°
2026-05-07 16:25 66.00145 -56.08680 36101 ft 422 kts 276°
2026-05-07 16:26 66.00150 -56.23050 36100 ft 421 kts 276°
2026-05-07 16:26 66.00156 -56.37378 36100 ft 421 kts 276°
2026-05-07 16:27 66.00161 -56.51742 36100 ft 421 kts 276°
2026-05-07 16:27 66.00166 -56.66127 36100 ft 421 kts 275°
2026-05-07 16:28 66.00109 -56.80475 36101 ft 422 kts 275°
2026-05-07 16:28 66.00102 -56.94758 36101 ft 421 kts 275°
2026-05-07 16:29 66.00105 -57.09142 36101 ft 422 kts 275°
2026-05-07 16:29 66.00110 -57.23551 36101 ft 422 kts 274°
2026-05-07 16:30 66.00114 -57.37884 36101 ft 422 kts 275°
2026-05-07 16:30 66.00120 -57.52321 36100 ft 422 kts 275°
2026-05-07 16:31 66.00124 -57.66635 36088 ft 422 kts 274°
2026-05-07 16:31 66.00067 -57.81025 36062 ft 422 kts 274°
2026-05-07 16:32 66.00062 -57.95422 36034 ft 422 kts 274°
2026-05-07 16:32 66.00064 -58.09758 36007 ft 422 kts 274°
2026-05-07 16:33 66.00069 -58.24180 36009 ft 422 kts 274°
2026-05-07 16:33 66.00074 -58.38555 36008 ft 422 kts 275°
2026-05-07 16:34 66.00079 -58.52867 36008 ft 422 kts 275°
2026-05-07 16:34 66.00081 -58.67275 36009 ft 422 kts 274°
2026-05-07 16:35 66.00025 -58.81640 36009 ft 422 kts 274°
2026-05-07 16:35 66.00021 -58.96061 36009 ft 421 kts 274°
2026-05-07 16:36 66.00024 -59.10367 36009 ft 421 kts 274°
2026-05-07 16:36 66.00029 -59.24693 36009 ft 421 kts 274°
2026-05-07 16:37 66.00033 -59.39117 36009 ft 421 kts 274°
2026-05-07 16:37 66.00037 -59.53420 36008 ft 421 kts 274°
2026-05-07 16:38 66.00035 -59.67747 36009 ft 421 kts 272°
2026-05-07 16:38 65.99985 -59.82142 36009 ft 422 kts 273°
2026-05-07 16:39 65.99993 -59.96484 36009 ft 421 kts 274°
2026-05-07 16:39 65.99728 -60.10901 36009 ft 424 kts 269°
2026-05-07 16:40 65.99112 -60.25290 36009 ft 424 kts 268°
2026-05-07 16:40 65.98422 -60.39646 36008 ft 425 kts 268°
2026-05-07 16:41 65.97717 -60.53959 36008 ft 425 kts 268°
2026-05-07 16:41 65.97000 -60.68323 36009 ft 425 kts 266°
2026-05-07 16:42 65.96227 -60.82683 36009 ft 426 kts 267°
2026-05-07 16:42 65.95503 -60.97065 36009 ft 425 kts 267°
2026-05-07 16:43 65.94790 -61.11402 36009 ft 427 kts 267°
2026-05-07 16:43 65.94073 -61.25858 36009 ft 429 kts 266°
2026-05-07 16:44 65.93356 -61.40318 36009 ft 428 kts 267°
2026-05-07 16:44 65.92640 -61.54733 36009 ft 428 kts 267°
2026-05-07 16:45 65.91916 -61.69133 36010 ft 429 kts 265°
2026-05-07 16:45 65.91142 -61.83571 36009 ft 429 kts 266°
2026-05-07 16:46 65.90414 -61.98047 36009 ft 428 kts 266°
2026-05-07 16:46 65.89698 -62.12437 36009 ft 428 kts 266°
2026-05-07 16:47 65.88983 -62.26841 36010 ft 428 kts 266°
2026-05-07 16:47 65.88267 -62.41287 36009 ft 428 kts 267°
2026-05-07 16:48 65.87554 -62.55653 36009 ft 428 kts 267°
2026-05-07 16:48 65.86825 -62.70057 36010 ft 429 kts 265°
2026-05-07 16:49 65.86056 -62.84475 36009 ft 428 kts 266°
2026-05-07 16:49 65.85331 -62.98903 36010 ft 429 kts 266°
2026-05-07 16:50 65.84611 -63.13387 36009 ft 430 kts 266°
2026-05-07 16:50 65.83897 -63.27758 36009 ft 429 kts 266°
2026-05-07 16:51 65.83182 -63.42171 36009 ft 429 kts 266°
2026-05-07 16:51 65.82463 -63.56656 36009 ft 429 kts 266°
2026-05-07 16:52 65.81728 -63.71079 36010 ft 430 kts 264°
2026-05-07 16:52 65.80964 -63.85478 36009 ft 430 kts 265°
2026-05-07 16:53 65.80237 -63.99981 35894 ft 430 kts 265°
2026-05-07 16:53 65.79521 -64.14362 35807 ft 429 kts 266°
2026-05-07 16:54 65.78805 -64.28802 35769 ft 430 kts 266°
2026-05-07 16:54 65.78088 -64.43240 35762 ft 430 kts 266°
2026-05-07 16:55 65.77375 -64.57613 35762 ft 430 kts 266°
2026-05-07 16:55 65.76638 -64.71998 35763 ft 431 kts 264°
2026-05-07 16:56 65.75875 -64.86441 35762 ft 430 kts 264°
2026-05-07 16:56 65.74786 -65.08217 35764 ft 438 kts 263°
2026-05-07 16:57 65.74059 -65.22856 35762 ft 437 kts 263°
2026-05-07 16:57 65.73332 -65.37511 35763 ft 437 kts 263°
2026-05-07 16:58 65.72607 -65.52124 35762 ft 437 kts 263°
2026-05-07 16:58 65.71877 -65.66798 35763 ft 437 kts 262°
2026-05-07 16:59 65.71091 -65.81372 35763 ft 437 kts 262°
2026-05-07 16:59 65.70356 -65.95962 35763 ft 437 kts 263°
2026-05-07 17:00 65.69627 -66.10593 35763 ft 437 kts 263°
2026-05-07 17:00 65.68900 -66.25230 35763 ft 437 kts 263°
2026-05-07 17:01 65.68177 -66.39802 35763 ft 437 kts 263°
2026-05-07 17:01 65.67451 -66.54438 35762 ft 437 kts 263°
2026-05-07 17:02 65.66724 -66.68936 35763 ft 437 kts 262°
2026-05-07 17:02 65.65941 -66.83511 35763 ft 437 kts 262°
2026-05-07 17:03 65.65206 -66.98135 35763 ft 437 kts 263°
2026-05-07 17:03 65.64480 -67.12730 35763 ft 439 kts 262°
2026-05-07 17:04 65.63752 -67.27383 35763 ft 442 kts 261°
2026-05-07 17:04 65.63021 -67.42121 35762 ft 441 kts 261°
2026-05-07 17:05 65.62292 -67.56811 35763 ft 441 kts 262°
2026-05-07 17:05 65.61538 -67.71587 35758 ft 441 kts 260°
2026-05-07 17:06 65.60764 -67.86221 35715 ft 441 kts 261°
2026-05-07 17:06 65.60027 -68.00912 35701 ft 441 kts 261°
2026-05-07 17:07 65.59293 -68.15656 35698 ft 441 kts 261°
2026-05-07 17:07 65.58566 -68.30315 35699 ft 441 kts 261°
2026-05-07 17:08 65.57835 -68.45019 35698 ft 441 kts 261°
2026-05-07 17:08 65.57107 -68.59663 35698 ft 441 kts 262°
2026-05-07 17:09 65.56340 -68.74361 35699 ft 441 kts 260°
2026-05-07 17:09 65.55582 -68.88985 35699 ft 441 kts 261°
2026-05-07 17:10 65.54847 -69.03696 35699 ft 447 kts 260°
2026-05-07 17:10 65.54100 -69.18707 35715 ft 454 kts 260°
2026-05-07 17:11 65.53352 -69.33755 35716 ft 453 kts 260°
2026-05-07 17:11 65.52602 -69.48826 35717 ft 452 kts 260°
2026-05-07 17:12 65.51854 -69.63840 35717 ft 453 kts 260°
2026-05-07 17:12 65.51051 -69.78847 35717 ft 452 kts 259°
2026-05-07 17:13 65.50303 -69.93825 35717 ft 452 kts 260°
2026-05-07 17:13 65.49044 -70.08570 35719 ft 448 kts 249°
2026-05-07 17:14 65.47043 -70.22678 35716 ft 447 kts 248°
2026-05-07 17:14 65.44966 -70.36740 35717 ft 447 kts 248°
2026-05-07 17:15 65.42873 -70.50770 35717 ft 447 kts 248°
2026-05-07 17:15 65.40771 -70.64825 35703 ft 447 kts 248°
2026-05-07 17:16 65.38634 -70.78709 35684 ft 447 kts 247°
2026-05-07 17:16 65.36520 -70.92725 35680 ft 450 kts 246°
2026-05-07 17:17 65.34392 -71.06915 35681 ft 458 kts 246°
2026-05-07 17:17 65.32242 -71.21292 35680 ft 457 kts 246°
2026-05-07 17:18 65.30110 -71.35534 35680 ft 457 kts 246°
2026-05-07 17:18 65.27985 -71.49739 35680 ft 457 kts 246°
2026-05-07 17:19 65.25853 -71.63985 35680 ft 457 kts 246°
2026-05-07 17:19 65.23678 -71.78138 35680 ft 456 kts 245°
2026-05-07 17:20 65.21531 -71.92356 35680 ft 456 kts 246°
2026-05-07 17:20 65.19405 -72.06539 35680 ft 456 kts 246°
2026-05-07 17:21 65.17270 -72.20794 35680 ft 456 kts 246°
2026-05-07 17:21 65.15151 -72.34949 35680 ft 456 kts 246°
2026-05-07 17:22 65.13033 -72.49102 35680 ft 457 kts 246°
2026-05-07 17:22 65.10906 -72.63322 35618 ft 457 kts 246°
2026-05-07 17:23 65.08739 -72.77421 35573 ft 455 kts 245°
2026-05-07 17:23 65.06616 -72.91481 35560 ft 456 kts 246°
2026-05-07 17:24 65.04500 -73.05593 35553 ft 458 kts 245°
2026-05-07 17:24 65.02354 -73.19921 35543 ft 464 kts 245°
2026-05-07 17:25 65.00205 -73.34283 35542 ft 465 kts 245°
2026-05-07 17:25 64.98061 -73.48612 35541 ft 465 kts 245°
2026-05-07 17:26 64.95908 -73.62998 35542 ft 467 kts 245°
2026-05-07 17:26 64.93707 -73.77331 35542 ft 465 kts 244°
2026-05-07 17:27 64.91542 -73.91663 35542 ft 466 kts 245°
2026-05-07 17:27 64.89387 -74.06029 35545 ft 466 kts 245°
2026-05-07 17:28 64.87223 -74.20383 35544 ft 466 kts 245°
2026-05-07 17:28 64.85075 -74.34714 35544 ft 466 kts 245°
2026-05-07 17:29 64.82934 -74.49026 35544 ft 466 kts 245°
2026-05-07 17:29 64.80806 -74.63245 35544 ft 466 kts 245°
2026-05-07 17:30 64.78608 -74.77546 35544 ft 464 kts 244°
2026-05-07 17:30 64.76463 -74.91753 35543 ft 466 kts 245°
2026-05-07 17:31 64.74294 -75.06213 35544 ft 475 kts 244°
2026-05-07 17:31 64.72105 -75.20850 35542 ft 480 kts 244°
2026-05-07 17:32 64.69909 -75.35529 35544 ft 479 kts 244°
2026-05-07 17:32 64.68087 -75.47700 35544 ft 479 kts 244°
2026-05-07 17:33 64.65537 -75.64738 35544 ft 479 kts 244°
2026-05-07 17:33 64.63284 -75.79366 35543 ft 477 kts 243°
2026-05-07 17:34 64.61104 -75.93842 35543 ft 478 kts 244°
2026-05-07 17:34 64.58921 -76.08415 35543 ft 478 kts 244°
2026-05-07 17:35 64.56737 -76.23006 35543 ft 478 kts 244°
2026-05-07 17:35 64.54558 -76.37569 35544 ft 478 kts 244°
2026-05-07 17:36 64.52381 -76.52110 35544 ft 478 kts 244°
2026-05-07 17:36 64.50202 -76.66661 35544 ft 478 kts 243°
2026-05-07 17:37 64.47983 -76.81052 35543 ft 477 kts 244°
2026-05-07 17:37 64.45796 -76.95599 35543 ft 478 kts 244°
2026-05-07 17:38 64.43628 -77.10072 35543 ft 479 kts 243°
2026-05-07 17:38 64.41446 -77.24650 35543 ft 478 kts 244°
2026-05-07 17:39 64.39275 -77.39154 35543 ft 479 kts 244°
2026-05-07 17:39 64.37115 -77.53590 35543 ft 479 kts 244°
2026-05-07 17:40 64.34938 -77.68103 35752 ft 478 kts 243°
2026-05-07 17:40 64.33813 -77.75332 35964 ft 477 kts 243°
2026-05-07 17:40 64.32710 -77.82550 36177 ft 477 kts 243°
2026-05-07 17:41 64.31628 -77.89754 36379 ft 477 kts 243°
2026-05-07 17:41 64.30540 -77.97002 36503 ft 480 kts 243°
2026-05-07 17:41 64.29453 -78.04250 36604 ft 482 kts 244°
2026-05-07 17:41 64.28363 -78.11536 36771 ft 481 kts 244°
2026-05-07 17:42 64.27277 -78.18793 36948 ft 481 kts 244°
2026-05-07 17:42 64.26193 -78.26033 37127 ft 481 kts 244°
2026-05-07 17:42 64.25108 -78.33278 37302 ft 481 kts 244°
2026-05-07 17:42 64.24017 -78.40569 37475 ft 481 kts 244°
2026-05-07 17:43 64.21853 -78.55024 37547 ft 481 kts 244°
2026-05-07 17:43 64.19678 -78.69489 37540 ft 479 kts 243°
2026-05-07 17:44 64.17464 -78.83887 37543 ft 479 kts 243°
2026-05-07 17:44 64.15311 -78.98229 37542 ft 480 kts 243°
2026-05-07 17:45 64.13123 -79.12817 37543 ft 491 kts 244°
2026-05-07 17:45 64.10886 -79.27764 37541 ft 498 kts 244°
2026-05-07 17:46 64.08667 -79.42594 37542 ft 497 kts 244°
2026-05-07 17:46 64.06422 -79.57575 37543 ft 496 kts 244°
2026-05-07 17:47 64.04179 -79.72353 37541 ft 494 kts 242°
2026-05-07 17:47 64.01925 -79.87161 37542 ft 495 kts 243°
2026-05-07 17:48 63.99653 -80.01884 37691 ft 489 kts 239°
2026-05-07 17:48 63.98199 -80.08894 37853 ft 485 kts 234°
2026-05-07 17:48 63.96617 -80.15546 37976 ft 485 kts 233°
2026-05-07 17:49 63.93339 -80.28919 38006 ft 484 kts 233°
2026-05-07 17:49 63.90034 -80.42203 37997 ft 483 kts 233°
2026-05-07 17:50 63.86725 -80.55398 38004 ft 483 kts 233°
2026-05-07 17:50 63.83406 -80.68646 38000 ft 482 kts 231°
2026-05-07 17:51 63.80068 -80.81751 38002 ft 482 kts 232°
2026-05-07 17:51 63.76791 -80.94839 38001 ft 484 kts 232°
2026-05-07 17:52 63.73448 -81.08208 38002 ft 495 kts 232°
2026-05-07 17:52 63.70044 -81.21847 37999 ft 498 kts 232°
2026-05-07 17:53 63.66676 -81.35340 38002 ft 497 kts 232°
2026-05-07 17:53 63.63295 -81.48881 38002 ft 497 kts 232°
2026-05-07 17:54 63.59924 -81.62381 38002 ft 497 kts 232°
2026-05-07 17:54 63.56517 -81.75802 38002 ft 495 kts 231°
2026-05-07 17:55 63.53135 -81.89257 38000 ft 496 kts 232°
2026-05-07 17:55 63.49775 -82.02693 38001 ft 496 kts 232°
2026-05-07 17:56 63.46416 -82.16143 38001 ft 496 kts 232°
2026-05-07 17:56 63.43050 -82.29607 38003 ft 503 kts 232°
2026-05-07 17:57 63.40223 -82.40948 38001 ft 502 kts 233°
2026-05-07 17:57 63.36269 -82.56781 38001 ft 501 kts 233°
2026-05-07 17:58 63.32872 -82.70311 37998 ft 500 kts 231°
2026-05-07 17:58 63.29466 -82.83717 38000 ft 500 kts 232°
2026-05-07 17:59 63.26094 -82.97187 38000 ft 507 kts 232°
2026-05-07 17:59 63.22649 -83.10983 38000 ft 510 kts 232°
2026-05-07 18:00 63.19229 -83.24682 38000 ft 509 kts 233°
2026-05-07 18:00 63.15828 -83.38303 38001 ft 509 kts 233°
2026-05-07 18:01 63.12402 -83.52026 38001 ft 509 kts 233°
2026-05-07 18:01 63.08995 -83.65668 38001 ft 509 kts 232°
2026-05-07 18:02 63.03849 -83.85962 38000 ft 508 kts 232°
2026-05-07 18:03 63.00442 -83.99585 37999 ft 508 kts 232°
2026-05-07 18:03 62.97061 -84.13123 38000 ft 508 kts 233°
2026-05-07 18:04 62.93658 -84.26749 38000 ft 508 kts 233°
2026-05-07 18:04 62.90291 -84.40234 38000 ft 508 kts 233°
2026-05-07 18:05 62.86885 -84.53822 38003 ft 508 kts 233°
2026-05-07 18:05 62.83498 -84.67361 38002 ft 507 kts 232°
2026-05-07 18:06 62.80093 -84.80714 38001 ft 506 kts 232°
2026-05-07 18:06 62.76721 -84.94186 38001 ft 507 kts 232°
2026-05-07 18:07 62.73348 -85.07681 38002 ft 512 kts 233°
2026-05-07 18:07 62.69927 -85.21376 38002 ft 522 kts 233°
2026-05-07 18:08 62.66460 -85.35272 38002 ft 521 kts 233°
2026-05-07 18:08 62.63028 -85.49017 38002 ft 520 kts 233°
2026-05-07 18:09 62.59595 -85.62763 38002 ft 520 kts 233°
2026-05-07 18:09 62.56107 -85.76492 38002 ft 518 kts 232°
2026-05-07 18:10 62.52683 -85.90125 38000 ft 519 kts 232°
2026-05-07 18:10 62.49249 -86.03866 38001 ft 519 kts 233°
2026-05-07 18:11 62.45835 -86.17535 38001 ft 519 kts 233°
2026-05-07 18:11 62.42431 -86.31173 38001 ft 519 kts 233°
2026-05-07 18:12 62.38974 -86.44986 37515 ft 529 kts 234°
2026-05-07 18:12 62.35536 -86.58781 37515 ft 525 kts 234°
2026-05-07 18:13 62.32058 -86.72566 37539 ft 523 kts 232°
2026-05-07 18:13 62.28583 -86.86318 37576 ft 524 kts 233°
2026-05-07 18:14 62.25148 -87.00056 37605 ft 525 kts 233°
2026-05-07 18:14 62.21698 -87.13869 37607 ft 526 kts 233°
2026-05-07 18:15 62.18256 -87.27653 37607 ft 526 kts 233°
2026-05-07 18:15 62.14811 -87.41451 37608 ft 526 kts 233°
2026-05-07 18:16 62.11383 -87.55183 37608 ft 526 kts 233°
2026-05-07 18:16 62.07951 -87.68891 37605 ft 524 kts 232°
2026-05-07 18:17 62.04484 -87.82512 37606 ft 524 kts 233°
2026-05-07 18:17 62.01089 -87.96085 37606 ft 524 kts 233°
2026-05-07 18:18 61.97667 -88.09783 37607 ft 524 kts 233°
2026-05-07 18:18 61.94268 -88.23393 37607 ft 524 kts 233°
2026-05-07 18:19 61.90846 -88.37101 37607 ft 524 kts 233°
2026-05-07 18:19 61.87438 -88.50703 37608 ft 524 kts 233°
2026-05-07 18:20 61.84040 -88.64292 37610 ft 524 kts 234°
2026-05-07 18:20 61.80605 -88.77782 37607 ft 522 kts 233°
2026-05-07 18:21 61.77214 -88.91318 37608 ft 524 kts 233°
2026-05-07 18:21 61.73828 -89.04869 37608 ft 526 kts 233°
2026-05-07 18:22 61.70424 -89.18497 37608 ft 526 kts 233°
2026-05-07 18:22 61.67011 -89.32159 37608 ft 526 kts 234°
2026-05-07 18:23 61.63638 -89.45665 37609 ft 526 kts 234°
2026-05-07 18:23 61.60243 -89.59251 37609 ft 526 kts 234°
2026-05-07 18:24 61.56820 -89.72798 37606 ft 523 kts 232°
2026-05-07 18:24 61.53437 -89.86234 37607 ft 525 kts 233°
2026-05-07 18:25 61.50029 -89.99616 37606 ft 519 kts 229°
2026-05-07 18:25 61.47931 -90.05725 37612 ft 506 kts 219°
2026-05-07 18:25 61.45629 -90.11172 37608 ft 502 kts 217°
2026-05-07 18:26 61.40924 -90.21849 37608 ft 500 kts 217°
2026-05-07 18:26 61.36183 -90.32427 37608 ft 500 kts 217°
2026-05-07 18:27 61.31458 -90.42936 37604 ft 502 kts 217°
2026-05-07 18:27 61.26625 -90.53678 37605 ft 511 kts 217°
2026-05-07 18:28 61.21787 -90.64444 37608 ft 509 kts 217°
2026-05-07 18:28 61.16953 -90.75024 37606 ft 506 kts 216°
2026-05-07 18:29 61.12174 -90.85609 37606 ft 508 kts 217°
2026-05-07 18:29 61.07383 -90.96254 37607 ft 507 kts 217°
2026-05-07 18:30 61.02605 -91.06873 37607 ft 508 kts 217°
2026-05-07 18:30 60.97816 -91.17519 37607 ft 509 kts 217°
2026-05-07 18:31 60.93022 -91.28178 37607 ft 509 kts 218°
2026-05-07 18:31 60.88223 -91.38838 37610 ft 508 kts 218°
2026-05-07 18:32 60.83441 -91.49438 37609 ft 508 kts 218°
2026-05-07 18:32 60.78641 -91.60105 37609 ft 508 kts 218°
2026-05-07 18:33 60.73866 -91.70640 37605 ft 505 kts 216°
2026-05-07 18:33 60.69103 -91.81117 37608 ft 507 kts 217°
2026-05-07 18:34 60.64326 -91.91723 37607 ft 507 kts 217°
2026-05-07 18:34 60.59605 -92.02213 37608 ft 507 kts 218°
2026-05-07 18:35 60.54865 -92.12753 37608 ft 507 kts 218°
2026-05-07 18:35 60.50131 -92.23279 37608 ft 507 kts 218°
2026-05-07 18:36 60.45370 -92.33862 37613 ft 507 kts 218°
2026-05-07 18:36 60.40641 -92.44373 37633 ft 507 kts 218°
2026-05-07 18:37 60.35912 -92.54887 37649 ft 507 kts 218°
2026-05-07 18:37 60.31219 -92.65323 37654 ft 507 kts 217°
2026-05-07 18:38 60.26457 -92.75738 37651 ft 504 kts 217°
2026-05-07 18:38 60.21769 -92.86129 37652 ft 506 kts 218°
2026-05-07 18:39 60.17062 -92.96589 37652 ft 505 kts 218°
2026-05-07 18:39 60.12355 -93.07053 37653 ft 505 kts 219°
2026-05-07 18:40 60.07677 -93.17451 37653 ft 504 kts 219°
2026-05-07 18:40 60.02992 -93.27868 37653 ft 505 kts 219°
2026-05-07 18:41 59.98322 -93.38248 37658 ft 504 kts 219°
2026-05-07 18:41 59.93671 -93.48590 37674 ft 505 kts 219°
2026-05-07 18:42 59.88990 -93.58995 37692 ft 504 kts 219°
2026-05-07 18:42 59.84304 -93.69312 37707 ft 507 kts 218°
2026-05-07 18:43 59.79553 -93.79744 37708 ft 511 kts 219°
2026-05-07 18:43 59.74819 -93.90253 37708 ft 510 kts 219°
2026-05-07 18:44 59.70116 -94.00706 37708 ft 510 kts 219°
2026-05-07 18:44 59.65414 -94.11161 37708 ft 510 kts 220°
2026-05-07 18:45 59.60722 -94.21591 37709 ft 510 kts 220°
2026-05-07 18:45 59.56045 -94.31988 37709 ft 510 kts 220°
2026-05-07 18:46 59.51346 -94.42436 37709 ft 510 kts 220°
2026-05-07 18:46 59.46673 -94.52826 37709 ft 510 kts 220°
2026-05-07 18:47 59.41967 -94.63287 37709 ft 510 kts 220°
2026-05-07 18:47 59.37282 -94.73562 37708 ft 507 kts 219°
2026-05-07 18:48 59.32598 -94.83923 37707 ft 509 kts 220°
2026-05-07 18:48 59.27952 -94.94246 37707 ft 507 kts 220°
2026-05-07 18:49 59.23308 -95.04569 37708 ft 505 kts 221°
2026-05-07 18:49 59.18698 -95.14816 37708 ft 505 kts 221°
2026-05-07 18:50 59.14084 -95.25077 37708 ft 505 kts 221°
2026-05-07 18:50 59.09459 -95.35356 37708 ft 505 kts 221°
2026-05-07 18:51 59.04859 -95.45584 37708 ft 505 kts 221°
2026-05-07 18:51 59.00227 -95.55880 37710 ft 515 kts 224°
2026-05-07 18:52 58.95473 -95.66452 37706 ft 525 kts 225°
2026-05-07 18:52 58.90662 -95.76974 37708 ft 520 kts 228°
2026-05-07 18:53 58.85969 -95.87357 37707 ft 512 kts 229°
2026-05-07 18:53 58.81298 -95.97729 37708 ft 515 kts 229°
2026-05-07 18:54 58.76643 -96.08078 37708 ft 514 kts 229°
2026-05-07 18:54 58.71972 -96.18462 37708 ft 514 kts 229°
2026-05-07 18:55 58.67297 -96.28857 37728 ft 514 kts 230°
2026-05-07 18:55 58.62651 -96.39188 37769 ft 514 kts 230°
2026-05-07 18:56 58.57997 -96.49535 37812 ft 514 kts 230°
2026-05-07 18:56 58.53352 -96.59866 37808 ft 514 kts 230°
2026-05-07 18:57 58.48672 -96.70195 37809 ft 514 kts 228°
2026-05-07 18:57 58.44005 -96.80460 37808 ft 514 kts 229°
2026-05-07 18:58 58.39378 -96.90733 37809 ft 514 kts 230°
2026-05-07 18:58 58.34729 -97.01069 37809 ft 515 kts 230°
2026-05-07 18:59 58.30057 -97.11454 37809 ft 520 kts 230°
2026-05-07 18:59 58.25362 -97.21895 37810 ft 524 kts 231°
2026-05-07 19:00 58.20640 -97.32395 37810 ft 523 kts 231°
2026-05-07 19:00 58.15936 -97.42853 37810 ft 523 kts 231°
2026-05-07 19:01 58.11251 -97.53270 37810 ft 523 kts 231°
2026-05-07 19:01 58.06531 -97.63764 37810 ft 523 kts 231°
2026-05-07 19:02 58.01828 -97.74071 37809 ft 524 kts 230°
2026-05-07 19:02 57.97104 -97.84538 37810 ft 524 kts 230°
2026-05-07 19:03 57.92426 -97.94932 37810 ft 524 kts 231°
2026-05-07 19:03 57.87713 -98.05395 37807 ft 523 kts 231°
2026-05-07 19:04 57.83040 -98.15762 37808 ft 524 kts 231°
2026-05-07 19:04 57.78374 -98.26134 37808 ft 523 kts 231°
2026-05-07 19:05 57.73696 -98.36535 37808 ft 524 kts 231°
2026-05-07 19:05 57.69010 -98.46954 37809 ft 524 kts 231°
2026-05-07 19:06 57.64330 -98.57357 37809 ft 524 kts 231°
2026-05-07 19:06 57.57305 -98.72843 37808 ft 524 kts 230°
2026-05-07 19:07 57.52640 -98.83164 37808 ft 524 kts 231°
2026-05-07 19:07 57.47995 -98.93484 37809 ft 521 kts 231°
2026-05-07 19:08 57.43383 -99.03738 37808 ft 513 kts 232°
2026-05-07 19:08 57.38859 -99.13793 37808 ft 505 kts 233°
2026-05-07 19:09 57.34388 -99.23735 37809 ft 506 kts 233°
2026-05-07 19:09 57.29869 -99.33781 37809 ft 507 kts 233°
2026-05-07 19:10 57.25399 -99.43718 37832 ft 506 kts 233°
2026-05-07 19:10 57.20894 -99.53728 37856 ft 507 kts 233°
2026-05-07 19:11 57.16435 -99.63639 37865 ft 506 kts 234°
2026-05-07 19:11 57.11910 -99.73557 37864 ft 507 kts 233°
2026-05-07 19:12 57.07414 -99.83529 37865 ft 508 kts 233°
2026-05-07 19:12 57.02940 -99.93469 37865 ft 508 kts 234°
2026-05-07 19:13 56.98289 -100.03227 37855 ft 509 kts 229°
2026-05-07 19:13 56.93215 -100.12194 37857 ft 511 kts 228°
2026-05-07 19:14 56.88051 -100.21128 37851 ft 511 kts 227°
2026-05-07 19:14 56.82879 -100.30019 37854 ft 511 kts 228°
2026-05-07 19:15 56.77740 -100.38872 37853 ft 511 kts 228°
2026-05-07 19:15 56.72599 -100.47731 37854 ft 511 kts 228°
2026-05-07 19:16 56.67457 -100.56590 37854 ft 511 kts 228°
2026-05-07 19:16 56.62299 -100.65479 37854 ft 511 kts 227°
2026-05-07 19:17 56.57111 -100.74276 37854 ft 512 kts 227°
2026-05-07 19:17 56.51982 -100.83095 37855 ft 511 kts 227°
2026-05-07 19:18 56.46877 -100.91887 37854 ft 504 kts 227°
2026-05-07 19:18 56.41866 -101.00520 37855 ft 499 kts 227°
2026-05-07 19:19 56.36857 -101.09152 37855 ft 496 kts 227°
2026-05-07 19:19 56.31885 -101.17720 37855 ft 498 kts 228°
2026-05-07 19:20 56.26898 -101.26311 37855 ft 497 kts 228°
2026-05-07 19:20 56.21932 -101.34871 37855 ft 497 kts 228°
2026-05-07 19:21 56.16972 -101.43416 37855 ft 497 kts 228°
2026-05-07 19:21 56.12011 -101.51964 37855 ft 497 kts 228°
2026-05-07 19:22 56.07037 -101.60535 37855 ft 497 kts 228°
2026-05-07 19:22 56.02047 -101.69080 37856 ft 498 kts 227°
2026-05-07 19:23 55.97049 -101.77594 37857 ft 498 kts 227°
2026-05-07 19:23 55.92927 -101.84686 37860 ft 497 kts 228°
2026-05-07 19:24 55.87133 -101.94652 37861 ft 497 kts 228°
2026-05-07 19:24 55.82168 -102.03191 37863 ft 498 kts 228°
2026-05-07 19:25 55.77216 -102.11722 37863 ft 497 kts 228°
2026-05-07 19:25 55.72254 -102.20270 37863 ft 498 kts 228°
2026-05-07 19:26 55.67311 -102.28789 37863 ft 497 kts 228°
2026-05-07 19:26 55.62391 -102.37264 37863 ft 497 kts 229°
2026-05-07 19:27 55.58255 -102.44391 37863 ft 497 kts 229°
2026-05-07 19:27 55.52520 -102.54273 37863 ft 497 kts 229°
2026-05-07 19:28 55.47561 -102.62819 37862 ft 496 kts 229°
2026-05-07 19:28 55.42621 -102.71229 37864 ft 497 kts 227°
2026-05-07 19:29 55.37704 -102.79652 37864 ft 496 kts 228°
2026-05-07 19:29 55.32776 -102.88136 37864 ft 496 kts 228°
2026-05-07 19:30 55.27886 -102.96561 37864 ft 496 kts 229°
2026-05-07 19:30 55.22960 -103.05050 37864 ft 495 kts 229°
2026-05-07 19:31 55.18095 -103.13431 37864 ft 493 kts 229°
2026-05-07 19:31 55.13256 -103.21768 37864 ft 491 kts 229°
2026-05-07 19:32 55.08382 -103.30167 37865 ft 491 kts 229°
2026-05-07 19:32 55.04351 -103.37109 37864 ft 492 kts 229°
2026-05-07 19:33 54.98701 -103.46842 37862 ft 492 kts 230°
2026-05-07 19:33 54.93845 -103.55205 37859 ft 493 kts 231°
2026-05-07 19:34 54.89788 -103.62191 37856 ft 493 kts 231°
2026-05-07 19:34 54.84083 -103.71881 37854 ft 494 kts 230°
2026-05-07 19:35 54.79241 -103.80220 37856 ft 494 kts 231°
2026-05-07 19:35 54.75035 -103.86952 37857 ft 499 kts 225°
2026-05-07 19:36 54.68655 -103.95537 37855 ft 500 kts 223°
2026-05-07 19:36 54.63136 -104.02790 37856 ft 501 kts 223°
2026-05-07 19:37 54.58531 -104.08821 37855 ft 501 kts 223°
2026-05-07 19:37 54.52063 -104.17284 37854 ft 501 kts 223°
2026-05-07 19:38 54.46559 -104.24484 37856 ft 501 kts 223°
2026-05-07 19:38 54.41946 -104.30520 37855 ft 501 kts 223°
2026-05-07 19:39 54.35499 -104.38953 37855 ft 500 kts 223°
2026-05-07 19:39 54.30911 -104.44956 37857 ft 500 kts 223°
2026-05-07 19:40 54.24488 -104.53359 37860 ft 500 kts 224°
2026-05-07 19:40 54.18981 -104.60563 37860 ft 500 kts 224°
2026-05-07 19:41 54.13460 -104.67758 37861 ft 501 kts 222°
2026-05-07 19:41 54.07936 -104.74891 37860 ft 501 kts 223°
2026-05-07 19:42 54.03323 -104.80916 37860 ft 501 kts 223°
2026-05-07 19:42 53.96901 -104.89314 37859 ft 501 kts 223°
2026-05-07 19:43 53.92361 -104.95252 37849 ft 495 kts 223°
2026-05-07 19:43 53.86063 -105.03473 37834 ft 487 kts 222°
2026-05-07 19:44 53.81646 -105.09242 37827 ft 485 kts 221°
2026-05-07 19:44 53.76349 -105.16170 37827 ft 481 kts 221°
2026-05-07 19:45 53.70169 -105.24255 37826 ft 483 kts 221°
2026-05-07 19:45 53.64889 -105.31163 37827 ft 482 kts 221°
2026-05-07 19:46 53.59596 -105.38088 37827 ft 483 kts 221°
2026-05-07 19:46 53.54359 -105.44936 38161 ft 476 kts 222°
2026-05-07 19:47 53.51752 -105.48350 38347 ft 476 kts 222°
2026-05-07 19:47 53.49186 -105.51708 38528 ft 475 kts 222°
2026-05-07 19:47 53.47436 -105.53996 38649 ft 475 kts 222°
2026-05-07 19:47 53.44820 -105.57418 38825 ft 475 kts 222°
2026-05-07 19:48 53.42226 -105.60812 38994 ft 475 kts 222°
2026-05-07 19:48 53.39625 -105.64214 39157 ft 475 kts 222°
2026-05-07 19:48 53.37024 -105.67591 39304 ft 476 kts 220°
2026-05-07 19:48 53.34429 -105.70918 39453 ft 476 kts 221°
2026-05-07 19:49 53.31797 -105.74339 39604 ft 476 kts 221°
2026-05-07 19:49 53.28344 -105.78846 39800 ft 475 kts 221°
2026-05-07 19:49 53.24039 -105.84475 39826 ft 476 kts 221°
2026-05-07 19:50 53.18824 -105.91298 39829 ft 479 kts 221°
2026-05-07 19:50 53.13578 -105.98160 39827 ft 479 kts 221°
2026-05-07 19:51 53.08372 -106.04969 39828 ft 479 kts 222°
2026-05-07 19:51 53.03160 -106.11788 39828 ft 480 kts 223°
2026-05-07 19:52 52.97076 -106.19746 39828 ft 479 kts 224°
2026-05-07 19:52 52.92723 -106.25443 39828 ft 479 kts 224°
2026-05-07 19:53 52.87524 -106.32236 39825 ft 479 kts 224°
2026-05-07 19:53 52.81431 -106.40189 39826 ft 479 kts 224°
2026-05-07 19:54 52.77094 -106.45860 39825 ft 479 kts 224°
2026-05-07 19:54 52.71006 -106.53824 39826 ft 479 kts 224°
2026-05-07 19:55 52.66704 -106.59453 39826 ft 479 kts 224°
2026-05-07 19:55 52.60617 -106.67393 39828 ft 480 kts 223°
2026-05-07 19:56 52.55379 -106.74155 39827 ft 480 kts 224°
2026-05-07 19:56 52.51057 -106.79798 39827 ft 479 kts 224°
2026-05-07 19:57 52.44994 -106.87727 39827 ft 477 kts 224°
2026-05-07 19:57 52.39858 -106.94444 39827 ft 475 kts 224°
2026-05-07 19:58 52.35568 -107.00058 39827 ft 473 kts 223°
2026-05-07 19:58 52.30463 -107.06737 39828 ft 471 kts 223°
2026-05-07 19:59 52.25378 -107.13390 39827 ft 471 kts 223°
2026-05-07 19:59 52.20257 -107.20091 39827 ft 471 kts 223°
2026-05-07 20:00 52.15164 -107.26754 39827 ft 471 kts 224°
2026-05-07 20:00 52.10091 -107.33392 39827 ft 471 kts 224°
2026-05-07 20:01 52.05006 -107.40043 39828 ft 471 kts 224°
2026-05-07 20:01 51.99929 -107.46684 39827 ft 471 kts 224°
2026-05-07 20:02 51.93982 -107.54466 39827 ft 471 kts 224°
2026-05-07 20:02 51.89736 -107.60020 39826 ft 471 kts 224°
2026-05-07 20:03 51.84662 -107.66625 39827 ft 472 kts 223°
2026-05-07 20:03 51.78685 -107.74341 39826 ft 471 kts 223°
2026-05-07 20:04 51.74451 -107.79867 39827 ft 471 kts 223°
2026-05-07 20:04 51.69389 -107.86488 39827 ft 472 kts 224°
2026-05-07 20:05 51.64304 -107.93140 39826 ft 471 kts 224°
2026-05-07 20:05 51.59518 -107.99401 39819 ft 472 kts 224°
2026-05-07 20:06 51.54445 -108.06039 39811 ft 471 kts 224°
2026-05-07 20:06 51.49361 -108.12688 39814 ft 471 kts 224°
2026-05-07 20:07 51.44319 -108.19285 39814 ft 471 kts 224°
2026-05-07 20:07 51.39254 -108.25912 39808 ft 471 kts 224°
2026-05-07 20:08 51.34197 -108.32529 39809 ft 471 kts 224°
2026-05-07 20:08 51.29151 -108.39130 39808 ft 471 kts 224°
2026-05-07 20:09 51.24106 -108.45729 39809 ft 471 kts 224°
2026-05-07 20:10 51.16531 -108.55641 39808 ft 471 kts 224°
2026-05-07 20:10 51.11483 -108.62244 39809 ft 471 kts 224°
2026-05-07 20:11 51.06411 -108.68825 39810 ft 472 kts 223°
2026-05-07 20:11 51.00531 -108.76458 39810 ft 472 kts 224°
2026-05-07 20:12 50.96304 -108.81981 39811 ft 471 kts 225°
2026-05-07 20:12 50.91283 -108.88547 39809 ft 471 kts 226°
2026-05-07 20:13 50.86233 -108.95138 39809 ft 471 kts 226°
2026-05-07 20:13 50.81209 -109.01700 39807 ft 470 kts 227°
2026-05-07 20:14 50.76184 -109.08276 39807 ft 468 kts 227°
2026-05-07 20:14 50.71242 -109.14735 39797 ft 460 kts 228°
2026-05-07 20:15 50.66339 -109.21148 39796 ft 457 kts 228°
2026-05-07 20:15 50.61489 -109.27498 39801 ft 458 kts 228°
2026-05-07 20:16 50.56593 -109.33906 39792 ft 459 kts 229°
2026-05-07 20:16 50.51699 -109.40308 39805 ft 458 kts 229°
2026-05-07 20:17 50.46823 -109.46682 39801 ft 458 kts 229°
2026-05-07 20:17 50.41962 -109.53045 39826 ft 460 kts 229°
2026-05-07 20:18 50.37076 -109.59431 39858 ft 458 kts 229°
2026-05-07 20:18 50.32180 -109.65826 39877 ft 458 kts 228°
2026-05-07 20:19 50.27275 -109.72161 39882 ft 459 kts 228°
2026-05-07 20:19 50.22407 -109.78526 39879 ft 458 kts 229°
2026-05-07 20:20 50.17519 -109.84911 39882 ft 458 kts 229°
2026-05-07 20:20 50.12668 -109.91257 39880 ft 457 kts 229°
2026-05-07 20:21 50.07790 -109.97642 39882 ft 460 kts 228°
2026-05-07 20:21 50.02660 -110.03612 39883 ft 467 kts 221°
2026-05-07 20:22 49.97160 -110.09000 39885 ft 469 kts 221°
2026-05-07 20:22 49.91612 -110.14308 39882 ft 468 kts 221°
2026-05-07 20:23 49.86094 -110.19562 39881 ft 469 kts 221°
2026-05-07 20:23 49.80503 -110.24875 39878 ft 469 kts 220°
2026-05-07 20:24 49.74980 -110.30119 39884 ft 469 kts 221°
2026-05-07 20:24 49.69442 -110.35392 39877 ft 468 kts 220°
2026-05-07 20:25 49.63908 -110.40663 39880 ft 469 kts 221°
2026-05-07 20:25 49.58373 -110.45937 39879 ft 468 kts 220°
2026-05-07 20:26 49.52840 -110.51192 39877 ft 470 kts 221°
2026-05-07 20:26 49.47308 -110.56457 39879 ft 469 kts 221°
2026-05-07 20:27 49.41763 -110.61732 39879 ft 470 kts 221°
2026-05-07 20:27 49.36247 -110.66969 39886 ft 470 kts 220°
2026-05-07 20:28 49.30666 -110.72211 39884 ft 469 kts 220°
2026-05-07 20:28 49.25173 -110.77427 39882 ft 470 kts 220°
2026-05-07 20:29 49.19644 -110.82691 39878 ft 469 kts 221°
2026-05-07 20:29 49.14199 -110.87875 39885 ft 468 kts 221°
2026-05-07 20:30 49.08699 -110.93114 39902 ft 469 kts 220°
2026-05-07 20:30 49.03175 -110.98357 39933 ft 472 kts 220°
2026-05-07 20:31 48.97606 -111.03673 39952 ft 477 kts 220°
2026-05-07 20:31 48.91981 -111.09018 39980 ft 478 kts 220°
2026-05-07 20:32 48.86376 -111.14333 39992 ft 475 kts 220°
2026-05-07 20:32 48.80800 -111.19638 39992 ft 475 kts 220°
2026-05-07 20:33 48.75189 -111.24975 39989 ft 476 kts 220°
2026-05-07 20:33 48.69630 -111.30257 39992 ft 475 kts 220°
2026-05-07 20:34 48.64063 -111.35557 39991 ft 475 kts 220°
2026-05-07 20:34 48.58490 -111.40867 39990 ft 475 kts 220°
2026-05-07 20:35 48.52922 -111.46170 39992 ft 476 kts 220°
2026-05-07 20:35 48.47351 -111.51471 39989 ft 475 kts 221°
2026-05-07 20:36 48.41759 -111.56792 39995 ft 475 kts 221°
2026-05-07 20:36 48.36198 -111.62079 39988 ft 475 kts 221°
2026-05-07 20:37 48.30658 -111.67323 39994 ft 477 kts 219°
2026-05-07 20:37 48.25033 -111.72622 39992 ft 476 kts 220°
2026-05-07 20:38 48.19455 -111.77914 39993 ft 476 kts 220°
2026-05-07 20:38 48.13889 -111.83216 39993 ft 476 kts 220°
2026-05-07 20:39 48.08335 -111.88494 39989 ft 475 kts 220°
2026-05-07 20:39 48.02802 -111.93771 39995 ft 476 kts 220°
2026-05-07 20:40 47.97251 -111.99045 39992 ft 475 kts 220°
2026-05-07 20:40 47.91678 -112.04354 39993 ft 474 kts 220°
2026-05-07 20:41 47.86128 -112.09621 39988 ft 476 kts 220°
2026-05-07 20:41 47.80559 -112.14909 39987 ft 475 kts 220°
2026-05-07 20:42 47.75016 -112.20190 39981 ft 476 kts 221°
2026-05-07 20:42 47.69494 -112.25447 39977 ft 475 kts 221°
2026-05-07 20:43 47.63912 -112.30752 39979 ft 476 kts 221°
2026-05-07 20:43 47.58423 -112.35983 39982 ft 474 kts 221°
2026-05-07 20:44 47.52851 -112.41287 39994 ft 475 kts 221°
2026-05-07 20:44 47.47317 -112.46548 39995 ft 474 kts 221°
2026-05-07 20:45 47.41816 -112.51791 40000 ft 475 kts 221°
2026-05-07 20:45 47.36289 -112.57044 40001 ft 473 kts 221°
2026-05-07 20:46 47.30786 -112.62283 40002 ft 474 kts 221°
2026-05-07 20:46 47.25220 -112.67551 40002 ft 476 kts 220°
2026-05-07 20:47 47.19702 -112.72746 40004 ft 475 kts 220°
2026-05-07 20:47 47.14142 -112.78031 40001 ft 475 kts 220°
2026-05-07 20:48 47.08633 -112.83267 40004 ft 475 kts 220°
2026-05-07 20:48 47.03115 -112.88526 40001 ft 472 kts 220°
2026-05-07 20:49 46.97594 -112.93779 40002 ft 480 kts 219°
2026-05-07 20:49 46.91980 -112.99124 40006 ft 484 kts 218°
2026-05-07 20:50 46.86338 -113.04479 40001 ft 486 kts 217°
2026-05-07 20:50 46.80701 -113.09827 40013 ft 485 kts 217°
2026-05-07 20:51 46.75107 -113.15156 40015 ft 485 kts 217°
2026-05-07 20:51 46.69463 -113.20528 40013 ft 486 kts 217°
2026-05-07 20:52 46.63831 -113.25882 40003 ft 484 kts 218°
2026-05-07 20:52 46.58190 -113.31254 40002 ft 485 kts 217°
2026-05-07 20:53 46.52605 -113.36570 40005 ft 485 kts 218°
2026-05-07 20:53 46.46978 -113.41926 40008 ft 484 kts 218°
2026-05-07 20:54 46.41347 -113.47287 40007 ft 485 kts 218°
2026-05-07 20:54 46.35719 -113.52640 40003 ft 484 kts 218°
2026-05-07 20:55 46.30115 -113.57978 40001 ft 485 kts 218°
2026-05-07 20:55 46.24500 -113.63320 40002 ft 486 kts 218°
2026-05-07 20:56 46.18881 -113.68605 40001 ft 485 kts 217°
2026-05-07 20:56 46.13239 -113.73948 40002 ft 486 kts 218°
2026-05-07 20:57 46.07637 -113.79275 40004 ft 485 kts 218°
2026-05-07 20:57 46.02032 -113.84608 39996 ft 486 kts 218°
2026-05-07 20:58 45.96415 -113.89957 39999 ft 485 kts 218°
2026-05-07 20:58 45.90828 -113.95284 39990 ft 485 kts 218°
2026-05-07 20:59 45.85195 -114.00621 39993 ft 484 kts 218°
2026-05-07 20:59 45.79616 -114.05919 39989 ft 485 kts 218°
2026-05-07 21:00 45.73997 -114.11273 39992 ft 485 kts 218°
2026-05-07 21:00 45.68447 -114.16560 39991 ft 484 kts 218°
2026-05-07 21:01 45.62841 -114.21889 39991 ft 485 kts 218°
2026-05-07 21:01 45.57262 -114.27196 39993 ft 485 kts 218°
2026-05-07 21:02 45.51644 -114.32546 39990 ft 485 kts 218°
2026-05-07 21:02 45.46065 -114.37856 39992 ft 485 kts 218°
2026-05-07 21:03 45.40485 -114.43168 39993 ft 484 kts 218°
2026-05-07 21:03 45.34904 -114.48481 39990 ft 485 kts 218°
2026-05-07 21:04 45.29343 -114.53773 39994 ft 484 kts 218°
2026-05-07 21:04 45.23740 -114.59099 39992 ft 484 kts 218°
2026-05-07 21:05 45.18162 -114.64419 40001 ft 484 kts 219°
2026-05-07 21:05 45.12590 -114.69648 40007 ft 485 kts 218°
2026-05-07 21:06 45.07003 -114.74947 40011 ft 485 kts 218°
2026-05-07 21:06 45.01430 -114.80250 40012 ft 484 kts 218°
2026-05-07 21:07 44.95889 -114.85524 40011 ft 483 kts 217°
2026-05-07 21:07 44.90325 -114.90817 40011 ft 483 kts 217°
2026-05-07 21:08 44.84766 -114.96093 40009 ft 483 kts 218°
2026-05-07 21:08 44.79229 -115.01359 40029 ft 483 kts 218°
2026-05-07 21:09 44.73671 -115.06647 40049 ft 483 kts 218°
2026-05-07 21:09 44.68120 -115.11931 40070 ft 482 kts 218°
2026-05-07 21:10 44.62591 -115.17192 40086 ft 483 kts 218°
2026-05-07 21:10 44.57056 -115.22460 40063 ft 484 kts 218°
2026-05-07 21:11 44.51526 -115.27728 40054 ft 483 kts 217°
2026-05-07 21:11 44.43227 -115.35622 40070 ft 483 kts 218°
2026-05-07 21:12 44.37666 -115.40909 40087 ft 483 kts 218°
2026-05-07 21:12 44.32149 -115.46165 40102 ft 483 kts 217°
2026-05-07 21:13 44.26617 -115.51425 40084 ft 483 kts 218°
2026-05-07 21:13 44.21079 -115.56696 40063 ft 483 kts 218°
2026-05-07 21:14 44.15580 -115.61929 40048 ft 483 kts 218°
2026-05-07 21:14 44.10050 -115.67170 40034 ft 483 kts 217°
2026-05-07 21:15 44.04512 -115.72388 40040 ft 483 kts 217°
2026-05-07 21:15 43.98991 -115.77638 40039 ft 482 kts 217°
2026-05-07 21:16 43.93452 -115.82913 40037 ft 483 kts 217°
2026-05-07 21:16 43.87939 -115.88146 40035 ft 483 kts 217°
2026-05-07 21:17 43.82408 -115.93404 40037 ft 483 kts 217°
2026-05-07 21:17 43.76918 -115.98634 40036 ft 482 kts 218°
2026-05-07 21:18 43.71395 -116.03885 40036 ft 483 kts 217°
2026-05-07 21:18 43.65875 -116.09136 40038 ft 482 kts 218°
2026-05-07 21:19 43.60403 -116.14339 40037 ft 483 kts 218°
2026-05-07 21:19 43.54898 -116.19582 40037 ft 483 kts 218°
2026-05-07 21:20 43.49288 -116.24631 40039 ft 484 kts 216°
2026-05-07 21:20 43.43589 -116.29563 40036 ft 484 kts 216°
2026-05-07 21:21 43.37923 -116.34457 40039 ft 483 kts 215°
2026-05-07 21:21 43.32225 -116.39372 40037 ft 484 kts 215°
2026-05-07 21:22 43.26569 -116.44241 40037 ft 485 kts 215°
2026-05-07 21:22 43.20867 -116.49160 40030 ft 483 kts 216°
2026-05-07 21:23 43.15186 -116.54041 40024 ft 484 kts 216°
2026-05-07 21:23 43.09518 -116.58933 40021 ft 484 kts 216°
2026-05-07 21:24 43.03855 -116.63805 40018 ft 484 kts 216°
2026-05-07 21:24 42.98153 -116.68675 40021 ft 489 kts 214°
2026-05-07 21:25 42.92371 -116.73628 40020 ft 493 kts 214°
2026-05-07 21:25 42.86580 -116.78608 40018 ft 496 kts 213°
2026-05-07 21:26 42.80777 -116.83599 40017 ft 495 kts 214°
2026-05-07 21:26 42.74952 -116.88615 40020 ft 495 kts 214°
2026-05-07 21:27 42.69160 -116.93610 40035 ft 494 kts 214°
2026-05-07 21:27 42.63397 -116.98561 40052 ft 493 kts 214°
2026-05-07 21:28 42.57615 -117.03550 40065 ft 493 kts 214°
2026-05-07 21:28 42.51839 -117.08523 40064 ft 493 kts 214°
2026-05-07 21:29 42.46113 -117.13464 40065 ft 492 kts 213°
2026-05-07 21:29 42.40339 -117.18446 40065 ft 492 kts 214°
2026-05-07 21:30 42.34605 -117.23367 40063 ft 492 kts 213°
2026-05-07 21:30 42.28848 -117.28327 40066 ft 492 kts 214°
2026-05-07 21:31 42.23099 -117.33282 40065 ft 492 kts 214°
2026-05-07 21:31 42.17351 -117.38229 40067 ft 492 kts 214°
2026-05-07 21:32 42.11586 -117.43182 40064 ft 492 kts 214°
2026-05-07 21:32 42.05853 -117.48136 40066 ft 492 kts 214°
2026-05-07 21:33 42.00118 -117.53078 40066 ft 492 kts 214°
2026-05-07 21:33 41.94358 -117.58042 40066 ft 492 kts 214°
2026-05-07 21:34 41.88619 -117.62991 40064 ft 492 kts 214°
2026-05-07 21:34 41.82869 -117.67891 40063 ft 492 kts 213°
2026-05-07 21:35 41.77103 -117.72821 40064 ft 493 kts 214°
2026-05-07 21:35 41.71379 -117.77747 40071 ft 491 kts 214°
2026-05-07 21:36 41.65655 -117.82680 40082 ft 492 kts 214°
2026-05-07 21:36 41.59916 -117.87618 40090 ft 492 kts 214°
2026-05-07 21:37 41.54184 -117.92556 40092 ft 492 kts 214°
2026-05-07 21:37 41.48427 -117.97506 40090 ft 492 kts 214°
2026-05-07 21:38 41.42725 -118.02420 40094 ft 492 kts 214°
2026-05-07 21:38 41.36968 -118.07376 40091 ft 492 kts 215°
2026-05-07 21:39 41.31247 -118.12318 40093 ft 492 kts 214°
2026-05-07 21:39 41.25550 -118.17223 40092 ft 492 kts 214°
2026-05-07 21:40 41.19828 -118.22158 40093 ft 492 kts 214°
2026-05-07 21:40 41.14100 -118.27080 40093 ft 491 kts 215°
2026-05-07 21:41 41.08384 -118.32008 40094 ft 495 kts 213°
2026-05-07 21:41 41.02583 -118.37002 40094 ft 501 kts 213°
2026-05-07 21:42 40.96740 -118.42036 40098 ft 501 kts 212°
2026-05-07 21:42 40.90935 -118.47028 40092 ft 500 kts 212°
2026-05-07 21:43 40.85133 -118.52022 40088 ft 500 kts 212°
2026-05-07 21:43 40.79300 -118.57051 40083 ft 501 kts 212°
2026-05-07 21:44 40.73496 -118.62041 40086 ft 501 kts 212°
2026-05-07 21:44 40.67661 -118.67050 40080 ft 500 kts 210°
2026-05-07 21:45 40.61850 -118.72019 40085 ft 501 kts 211°
2026-05-07 21:45 40.56045 -118.77011 40082 ft 501 kts 212°
2026-05-07 21:46 40.50241 -118.82011 40083 ft 500 kts 211°
2026-05-07 21:46 40.44465 -118.86988 40084 ft 498 kts 211°
2026-05-07 21:47 40.38702 -118.91946 40082 ft 496 kts 211°
2026-05-07 21:47 40.32970 -118.96887 40084 ft 494 kts 211°
2026-05-07 21:48 40.27271 -119.01794 40082 ft 493 kts 211°
2026-05-07 21:48 40.21548 -119.06725 40085 ft 492 kts 211°
2026-05-07 21:49 40.15837 -119.11642 40083 ft 492 kts 211°
2026-05-07 21:49 40.10159 -119.16534 40102 ft 492 kts 211°
2026-05-07 21:50 40.04471 -119.21433 40134 ft 492 kts 211°
2026-05-07 21:50 39.98766 -119.26347 40179 ft 493 kts 211°
2026-05-07 21:51 39.93082 -119.31244 40169 ft 492 kts 211°
2026-05-07 21:51 39.87373 -119.36157 40165 ft 492 kts 211°
2026-05-07 21:52 39.81712 -119.41025 40165 ft 492 kts 211°
2026-05-07 21:52 39.76010 -119.45935 40162 ft 493 kts 211°
2026-05-07 21:53 39.70330 -119.50827 40153 ft 492 kts 211°
2026-05-07 21:53 39.64634 -119.55731 40154 ft 492 kts 212°
2026-05-07 21:54 39.58964 -119.60610 40153 ft 492 kts 212°
2026-05-07 21:54 39.53388 -119.65751 40152 ft 495 kts 224°
2026-05-07 21:55 39.49119 -119.72716 40150 ft 498 kts 232°
2026-05-07 21:55 39.44975 -119.79881 40153 ft 497 kts 232°
2026-05-07 21:56 39.40889 -119.87020 40184 ft 497 kts 232°
2026-05-07 21:56 39.36789 -119.94189 40225 ft 497 kts 232°
2026-05-07 21:57 39.32704 -120.01334 40268 ft 497 kts 232°
2026-05-07 21:57 39.28596 -120.08516 40272 ft 497 kts 232°
2026-05-07 21:58 39.24514 -120.15651 40273 ft 497 kts 232°
2026-05-07 21:58 39.20408 -120.22825 39779 ft 501 kts 232°
2026-05-07 21:59 39.18213 -120.26302 39052 ft 498 kts 221°
2026-05-07 21:59 39.15503 -120.28971 38373 ft 493 kts 210°
2026-05-07 21:59 39.12605 -120.31266 37696 ft 493 kts 210°
2026-05-07 21:59 39.09724 -120.33600 37071 ft 493 kts 210°
2026-05-07 22:00 39.06797 -120.35948 36443 ft 493 kts 210°
2026-05-07 22:00 39.03907 -120.38251 35822 ft 493 kts 210°
2026-05-07 22:00 39.01013 -120.40558 35203 ft 494 kts 209°
2026-05-07 22:00 38.98086 -120.42893 34574 ft 495 kts 210°
2026-05-07 22:01 38.95192 -120.45201 33957 ft 497 kts 210°
2026-05-07 22:01 38.92252 -120.47531 33334 ft 499 kts 210°
2026-05-07 22:01 38.89307 -120.49877 32709 ft 500 kts 209°
2026-05-07 22:01 38.86351 -120.52225 32083 ft 505 kts 210°
2026-05-07 22:02 38.83360 -120.54601 31457 ft 505 kts 211°
2026-05-07 22:02 38.80421 -120.56945 30829 ft 500 kts 210°
2026-05-07 22:02 38.77513 -120.59258 30195 ft 495 kts 211°
2026-05-07 22:02 38.74598 -120.61575 29558 ft 489 kts 210°
2026-05-07 22:03 38.71728 -120.63847 28929 ft 485 kts 211°
2026-05-07 22:03 38.68868 -120.66100 28289 ft 480 kts 209°
2026-05-07 22:03 38.66043 -120.68276 27654 ft 476 kts 209°
2026-05-07 22:03 38.63232 -120.70445 27013 ft 471 kts 210°
2026-05-07 22:04 38.60476 -120.72588 26376 ft 466 kts 210°
2026-05-07 22:04 38.57722 -120.74723 25740 ft 461 kts 210°
2026-05-07 22:04 38.55002 -120.76835 25101 ft 457 kts 210°
2026-05-07 22:04 38.52329 -120.78914 24467 ft 452 kts 210°
2026-05-07 22:05 38.49680 -120.80973 23829 ft 447 kts 210°
2026-05-07 22:05 38.47051 -120.83016 23194 ft 442 kts 210°
2026-05-07 22:05 38.44456 -120.85036 22559 ft 438 kts 210°
2026-05-07 22:05 38.41853 -120.87058 21916 ft 434 kts 210°
2026-05-07 22:06 38.39307 -120.89033 21281 ft 429 kts 210°
2026-05-07 22:06 38.36780 -120.90997 20643 ft 425 kts 210°
2026-05-07 22:06 38.34293 -120.92931 20009 ft 420 kts 210°
2026-05-07 22:06 38.31836 -120.94840 19376 ft 416 kts 211°
2026-05-07 22:07 38.29378 -120.96751 18735 ft 411 kts 211°
2026-05-07 22:07 38.26981 -120.98613 18103 ft 407 kts 211°
2026-05-07 22:07 38.24575 -121.00483 17463 ft 403 kts 211°
2026-05-07 22:07 38.22220 -121.02312 16830 ft 399 kts 211°
2026-05-07 22:08 38.19816 -121.04002 16191 ft 394 kts 202°
2026-05-07 22:08 38.17260 -121.05218 15562 ft 389 kts 198°
2026-05-07 22:08 38.14740 -121.06396 14926 ft 386 kts 200°
2026-05-07 22:08 38.12257 -121.07594 14288 ft 382 kts 200°
2026-05-07 22:09 38.09812 -121.08763 13654 ft 378 kts 200°
2026-05-07 22:09 38.07352 -121.09941 13011 ft 374 kts 200°
2026-05-07 22:09 38.04976 -121.11079 12582 ft 369 kts 200°
2026-05-07 22:09 38.02580 -121.12226 12326 ft 367 kts 200°
2026-05-07 22:10 38.00204 -121.13365 12098 ft 366 kts 200°
2026-05-07 22:10 37.97836 -121.14499 11890 ft 365 kts 200°
2026-05-07 22:10 37.95458 -121.15639 11691 ft 364 kts 200°
2026-05-07 22:10 37.93080 -121.16777 11491 ft 364 kts 200°
2026-05-07 22:11 37.90743 -121.17896 11347 ft 362 kts 200°
2026-05-07 22:11 37.88374 -121.19028 11244 ft 363 kts 200°
2026-05-07 22:11 37.86005 -121.20158 11137 ft 362 kts 200°
2026-05-07 22:11 37.83654 -121.21283 11032 ft 362 kts 200°
2026-05-07 22:12 37.81331 -121.22394 10927 ft 361 kts 200°
2026-05-07 22:12 37.78983 -121.23517 10822 ft 361 kts 200°
2026-05-07 22:12 37.76631 -121.24644 10716 ft 361 kts 200°
2026-05-07 22:12 37.74284 -121.25770 10614 ft 360 kts 201°
2026-05-07 22:13 37.72102 -121.27295 10455 ft 361 kts 220°
2026-05-07 22:13 37.70580 -121.29691 10331 ft 344 kts 242°
2026-05-07 22:13 37.69628 -121.32366 10165 ft 322 kts 249°
2026-05-07 22:13 37.68851 -121.34911 10059 ft 301 kts 250°
2026-05-07 22:14 37.68144 -121.37371 9924 ft 299 kts 251°
2026-05-07 22:14 37.67464 -121.39857 9785 ft 298 kts 252°
2026-05-07 22:14 37.66803 -121.42329 9649 ft 297 kts 252°
2026-05-07 22:14 37.66087 -121.44754 9509 ft 297 kts 242°
2026-05-07 22:15 37.64898 -121.46878 9394 ft 296 kts 230°
2026-05-07 22:15 37.63595 -121.48869 9263 ft 295 kts 232°
2026-05-07 22:15 37.62332 -121.50915 9124 ft 294 kts 232°
2026-05-07 22:15 37.61067 -121.52935 8987 ft 294 kts 232°
2026-05-07 22:16 37.59806 -121.54950 8951 ft 292 kts 232°
2026-05-07 22:16 37.58532 -121.56986 8946 ft 294 kts 232°
2026-05-07 22:16 37.57278 -121.58982 8957 ft 290 kts 232°
2026-05-07 22:16 37.56027 -121.60970 8951 ft 286 kts 232°
2026-05-07 22:17 37.54950 -121.63042 8921 ft 285 kts 249°
2026-05-07 22:17 37.54362 -121.65434 8693 ft 283 kts 256°
2026-05-07 22:17 37.53819 -121.67803 8433 ft 281 kts 253°
2026-05-07 22:17 37.53247 -121.70122 8176 ft 279 kts 254°
2026-05-07 22:18 37.52683 -121.72472 7916 ft 277 kts 254°
2026-05-07 22:18 37.51573 -121.77100 7399 ft 274 kts 255°
2026-05-07 22:18 37.51028 -121.79381 7142 ft 273 kts 255°
2026-05-07 22:19 37.50487 -121.81643 6958 ft 261 kts 255°
2026-05-07 22:19 37.49980 -121.83765 6955 ft 252 kts 255°
2026-05-07 22:19 37.49476 -121.85879 6953 ft 251 kts 255°
2026-05-07 22:19 37.49108 -121.88033 6953 ft 249 kts 271°
2026-05-07 22:20 37.49215 -121.90193 6769 ft 249 kts 278°
2026-05-07 22:20 37.49360 -121.92351 6389 ft 247 kts 276°
2026-05-07 22:20 37.49480 -121.94511 6015 ft 245 kts 276°
2026-05-07 22:20 37.49601 -121.96606 5649 ft 241 kts 276°
2026-05-07 22:21 37.49722 -121.98703 5270 ft 236 kts 276°
2026-05-07 22:21 37.49839 -122.00724 4899 ft 232 kts 276°
2026-05-07 22:21 37.49955 -122.02736 4517 ft 228 kts 276°
2026-05-07 22:21 37.50070 -122.04715 4160 ft 224 kts 276°
2026-05-07 22:22 37.50182 -122.06657 3882 ft 222 kts 276°
2026-05-07 22:22 37.50294 -122.08575 3617 ft 221 kts 277°
2026-05-07 22:22 37.50624 -122.10453 3346 ft 216 kts 297°
2026-05-07 22:22 37.51354 -122.12035 3093 ft 208 kts 304°
2026-05-07 22:23 37.52057 -122.13590 3018 ft 197 kts 299°
2026-05-07 22:23 37.52679 -122.15148 2991 ft 199 kts 299°
2026-05-07 22:23 37.53305 -122.16628 3023 ft 187 kts 301°
2026-05-07 22:23 37.53912 -122.18047 3003 ft 179 kts 300°
2026-05-07 22:24 37.54499 -122.19436 2897 ft 180 kts 300°
2026-05-07 22:24 37.55080 -122.20813 2677 ft 176 kts 300°
2026-05-07 22:24 37.55658 -122.22182 2443 ft 175 kts 300°
2026-05-07 22:24 37.56226 -122.23527 2205 ft 173 kts 300°
2026-05-07 22:25 37.56793 -122.24868 1968 ft 174 kts 299°
2026-05-07 22:25 37.57355 -122.26200 1731 ft 173 kts 299°
2026-05-07 22:25 37.57904 -122.27505 1496 ft 163 kts 299°
2026-05-07 22:25 37.58413 -122.28715 1289 ft 150 kts 299°
2026-05-07 22:26 37.58889 -122.29848 1093 ft 145 kts 298°
2026-05-07 22:26 37.59359 -122.30969 894 ft 145 kts 298°
2026-05-07 22:26 37.59829 -122.32091 698 ft 143 kts 298°
2026-05-07 22:26 37.60293 -122.33189 508 ft 145 kts 298°
2026-05-07 22:27 37.60760 -122.34300 307 ft 143 kts 298°
2026-05-07 22:27 37.61217 -122.35390 113 ft 140 kts 298°
2026-05-07 22:27 37.61661 -122.36447 25 ft 129 kts 297°
2026-05-07 22:27 37.62034 -122.37341 20 ft 95 kts 298°
2026-05-07 22:28 37.62273 -122.37904 32 ft 48 kts 297°
2026-05-07 22:28 37.62343 -122.38094 32 ft 13 kts 280°
2026-05-07 22:28 37.62333 -122.38187 32 ft 8 kts 246°
2026-05-07 22:28 37.62293 -122.38244 33 ft 8 kts 217°
2026-05-07 22:29 37.62241 -122.38276 34 ft 9 kts 199°
2026-05-07 22:29 37.62161 -122.38306 36 ft 10 kts 198°
2026-05-07 22:29 37.62123 -122.38374 36 ft 12 kts 273°
2026-05-07 22:29 37.62158 -122.38483 36 ft 15 kts 300°
2026-05-07 22:30 37.62194 -122.38583 35 ft 11 kts 270°
2026-05-07 22:30 37.62172 -122.38676 36 ft 11 kts 276°
2026-05-07 22:30 37.62190 -122.38758 35 ft 8 kts 259°
2026-05-07 22:30 37.62141 -122.38816 36 ft 11 kts 213°
2026-05-07 22:31 37.62104 -122.38845 36 ft 0 kts 211°